Weather History for Orr, MN

Change the Weather History Date:

Sunday, June 30, 2013

  Actual Average Record
Temperature  
Mean Temperature 64 °F -  
Max Temperature 80 °F 72 °F 89 °F (2002)
Min Temperature 48 °F 50 °F 35 °F (2010)
Degree Days  
Heating Degree Days 1    
Growing Degree Days 14 (Base 50)    
Moisture  
Dew Point 50 °F    
Average Humidity 64    
Maximum Humidity 94    
Minimum Humidity 28    
Precipitation  
Precipitation 0.00 in - - ()
Sea Level Pressure  
Sea Level Pressure 30.09 in    
Wind  
Wind Speed 1 mph (NNW)    
Max Wind Speed 8 mph    
Max Gust Speed -    
Visibility 8 miles    
Events      
Averages and records for this station are not official NWS values.
T = Trace of Precipitation, MM = Missing Value Source: NWS Daily Summary

Daily Weather History Graph

Daily Weather History Graph

Search for Another Location

Airport:

Trip Planner

Search our weather history database for the weather conditions in past years. The results will help you decide how hot, cold, wet, or windy it might be!

Date:

Astronomy

Jun. 30, 2013 Rise Set
Actual Time 5:15 AM CDT 9:14 PM CDT
Civil Twilight 4:34 AM CDT 9:55 PM CDT
Nautical Twilight 3:37 AM CDT 10:52 PM CDT
Astronomical Twilight 2:03 AM CDT 12:24 AM CDT
Moon 12:37 AM CDT (6/30) 2:09 PM CDT (6/30)
Length of Visible Light 17h 21m
Length of Day
15h 59m
Last Quarter, 45% of the Moon is Illuminated
Jun 30
Last Quarter
Jul 8
New
Jul 15
First Quarter
Jul 22
Full
Jul 29
Last Quarter

Hourly Weather History & Observations

Time (CDT) Temp. Dew Point Humidity Pressure Visibility Wind Dir Wind Speed Gust Speed Precip Events Conditions
12:13 AM 51.8 °F 48.2 °F 88% 30.02 in 10.0 mi Calm Calm - N/A   Clear
12:33 AM 51.8 °F 48.2 °F 88% 30.02 in 7.0 mi Calm Calm - N/A   Clear
12:53 AM 51.8 °F 48.2 °F 88% 30.03 in 7.0 mi Calm Calm - N/A   Clear
1:13 AM 51.8 °F 50.0 °F 94% 30.03 in 7.0 mi Calm Calm - N/A   Clear
1:33 AM 51.8 °F 48.2 °F 88% 30.03 in 5.0 mi Calm Calm - N/A   Clear
1:53 AM 50.0 °F 48.2 °F 94% 30.03 in 4.0 mi Calm Calm - N/A   Clear
2:13 AM 51.8 °F 50.0 °F 94% 30.03 in 7.0 mi Calm Calm - N/A   Clear
2:33 AM 50.0 °F 48.2 °F 94% 30.03 in 5.0 mi Calm Calm - N/A   Clear
2:53 AM 51.8 °F 48.2 °F 88% 30.04 in 5.0 mi Calm Calm - N/A   Clear
3:13 AM 50.0 °F 46.4 °F 87% 30.04 in 4.0 mi Calm Calm - N/A   Clear
3:33 AM 48.2 °F 46.4 °F 93% 30.04 in 3.0 mi Calm Calm - N/A   Clear
3:53 AM 48.2 °F 46.4 °F 93% 30.04 in 5.0 mi Calm Calm - N/A   Clear
4:13 AM 50.0 °F 46.4 °F 87% 30.05 in 5.0 mi Calm Calm - N/A   Clear
4:33 AM 48.2 °F 46.4 °F 93% 30.05 in 5.0 mi Calm Calm - N/A   Clear
4:53 AM 48.2 °F 46.4 °F 93% 30.06 in 7.0 mi Calm Calm - N/A   Clear
5:13 AM 48.2 °F 46.4 °F 93% 30.07 in 5.0 mi Calm Calm - N/A   Clear
5:33 AM 48.2 °F 46.4 °F 93% 30.07 in 3.0 mi Calm Calm - N/A   Clear
5:53 AM 48.2 °F 46.4 °F 93% 30.07 in 2.5 mi Calm Calm - N/A   Clear
6:13 AM 48.2 °F 46.4 °F 93% 30.08 in 1.8 mi Calm Calm - N/A   Mist
6:33 AM 51.8 °F 48.2 °F 88% 30.08 in 5.0 mi Calm Calm - N/A   Clear
6:53 AM 51.8 °F 50.0 °F 94% 30.08 in 5.0 mi Calm Calm - N/A   Clear
7:13 AM 53.6 °F 51.8 °F 94% 30.09 in 7.0 mi Calm Calm - N/A   Clear
7:33 AM 55.4 °F 53.6 °F 94% 30.09 in 10.0 mi Calm Calm - N/A   Clear
7:53 AM 60.8 °F 55.4 °F 82% 30.09 in 10.0 mi Calm Calm - N/A   Clear
8:13 AM 62.6 °F 55.4 °F 77% 30.09 in 10.0 mi WNW 3.5 mph - N/A   Clear
8:33 AM 64.4 °F 53.6 °F 68% 30.09 in 10.0 mi Calm Calm - N/A   Clear
8:53 AM 66.2 °F 55.4 °F 68% 30.09 in 10.0 mi Calm Calm - N/A   Clear
9:13 AM 69.8 °F 55.4 °F 60% 30.09 in 10.0 mi Calm Calm - N/A   Clear
9:33 AM 69.8 °F 55.4 °F 60% 30.10 in 10.0 mi Calm Calm - N/A   Clear
9:53 AM 71.6 °F 55.4 °F 57% 30.09 in 10.0 mi Calm Calm - N/A   Clear
10:13 AM 73.4 °F 55.4 °F 53% 30.09 in 10.0 mi Calm Calm - N/A   Clear
10:33 AM 73.4 °F 55.4 °F 53% 30.09 in 10.0 mi Calm Calm - N/A   Clear
10:53 AM 75.2 °F 53.6 °F 47% 30.09 in 10.0 mi Calm Calm - N/A   Clear
11:13 AM 75.2 °F 51.8 °F 44% 30.09 in 10.0 mi Calm Calm - N/A   Clear
11:33 AM 77.0 °F 46.4 °F 34% 30.10 in 10.0 mi Calm Calm - N/A   Clear
11:53 AM 78.8 °F 46.4 °F 32% 30.09 in 10.0 mi WNW 4.6 mph - N/A   Clear
12:13 PM 78.8 °F 48.2 °F 34% 30.09 in 10.0 mi WNW 3.5 mph - N/A   Clear
12:33 PM 80.6 °F 46.4 °F 30% 30.09 in 10.0 mi NNE 3.5 mph - N/A   Clear
12:54 PM 78.8 °F 48.2 °F 34% 30.09 in 10.0 mi Calm Calm - N/A   Scattered Clouds
1:13 PM 78.8 °F 48.2 °F 34% 30.09 in 10.0 mi NE 4.6 mph - N/A   Clear
1:33 PM 80.6 °F 44.6 °F 28% 30.10 in 10.0 mi North 3.5 mph - N/A   Clear
1:53 PM 80.6 °F 44.6 °F 28% 30.10 in 10.0 mi NNW 4.6 mph - N/A   Clear
2:13 PM 80.6 °F 44.6 °F 28% 30.09 in 10.0 mi NW 4.6 mph - N/A   Clear
2:34 PM 80.6 °F 44.6 °F 28% 30.09 in 10.0 mi NW 3.5 mph - N/A   Clear
2:53 PM 80.6 °F 44.6 °F 28% 30.09 in 10.0 mi Calm Calm - N/A   Clear
3:13 PM 80.6 °F 44.6 °F 28% 30.10 in 10.0 mi Calm Calm - N/A   Clear
3:33 PM 80.6 °F 44.6 °F 28% 30.09 in 10.0 mi NW 8.1 mph - N/A   Clear
3:53 PM 80.6 °F 44.6 °F 28% 30.10 in 10.0 mi NNE 4.6 mph - N/A   Clear
4:13 PM 78.8 °F 44.6 °F 30% 30.10 in 10.0 mi NNW 4.6 mph - N/A   Clear
4:33 PM 80.6 °F 44.6 °F 28% 30.10 in 10.0 mi NW 3.5 mph - N/A   Clear
4:53 PM 80.6 °F 44.6 °F 28% 30.10 in 10.0 mi Calm Calm - N/A   Clear
5:13 PM 78.8 °F 44.6 °F 30% 30.10 in 10.0 mi Calm Calm - N/A   Scattered Clouds
5:33 PM 80.6 °F 44.6 °F 28% 30.10 in 10.0 mi Calm Calm - N/A   Clear
5:53 PM 78.8 °F 48.2 °F 34% 30.10 in 10.0 mi Calm Calm - N/A   Clear
6:13 PM 78.8 °F 46.4 °F 32% 30.10 in 10.0 mi Calm Calm - N/A   Clear
6:33 PM 78.8 °F 51.8 °F 39% 30.10 in 10.0 mi Calm Calm - N/A   Clear
6:53 PM 78.8 °F 48.2 °F 34% 30.10 in 10.0 mi Calm Calm - N/A   Clear
7:13 PM 75.2 °F 50.0 °F 41% 30.10 in 10.0 mi Calm Calm - N/A   Clear
7:33 PM 73.4 °F 55.4 °F 53% 30.11 in 10.0 mi Calm Calm - N/A   Clear
7:53 PM 69.8 °F 55.4 °F 60% 30.11 in 10.0 mi Calm Calm - N/A   Clear
8:13 PM 68.0 °F 55.4 °F 64% 30.11 in 10.0 mi Calm Calm - N/A   Clear
8:33 PM 66.2 °F 55.4 °F 68% 30.11 in 10.0 mi Calm Calm - N/A   Clear
8:53 PM 64.4 °F 55.4 °F 73% 30.11 in 10.0 mi Calm Calm - N/A   Clear
9:13 PM 64.4 °F 55.4 °F 73% 30.12 in 10.0 mi Calm Calm - N/A   Clear
9:33 PM 64.4 °F 57.2 °F 77% 30.12 in 10.0 mi Calm Calm - N/A   Clear
9:53 PM 62.6 °F 55.4 °F 77% 30.13 in 10.0 mi Calm Calm - N/A   Clear
10:13 PM 60.8 °F 55.4 °F 82% 30.13 in 10.0 mi Calm Calm - N/A   Clear
10:33 PM 60.8 °F 55.4 °F 82% 30.13 in 10.0 mi Calm Calm - N/A   Clear
10:53 PM 60.8 °F 55.4 °F 82% 30.13 in 10.0 mi Calm Calm - N/A   Clear
11:13 PM 59.0 °F 55.4 °F 88% 30.14 in 10.0 mi Calm Calm - N/A   Clear
11:33 PM 59.0 °F 55.4 °F 88% 30.14 in 10.0 mi Calm Calm - N/A   Clear
11:53 PM 59.0 °F 55.4 °F 88% 30.14 in 10.0 mi Calm Calm - N/A   Clear